Time,TemperatureF,DewpointF,PressureIn,WindDirection,WindDirectionDegrees,WindSpeedMPH,WindSpeedGustMPH,Humidity,HourlyPrecipIn,Conditions,Clouds,dailyrainin,SoftwareType,DateUTC
2013-01-08 00:04:00,33.7,30.0,30.31,South,188,4.0,10.0,86,0.00,,---,0.00,VWS V14.01,2013-01-08 05:04:00,
2013-01-08 00:09:00,33.7,29.7,30.31,SW,215,7.0,9.0,85,0.00,,---,0.00,VWS V14.01,2013-01-08 05:09:00,
2013-01-08 00:19:00,33.5,29.5,30.31,SSE,165,3.0,9.0,85,0.00,,---,0.00,VWS V14.01,2013-01-08 05:19:00,
2013-01-08 00:24:00,33.4,29.7,30.31,SSW,207,4.0,4.0,86,0.00,,---,0.00,VWS V14.01,2013-01-08 05:24:00,
2013-01-08 00:29:00,33.3,29.6,30.31,South,175,6.0,10.0,86,0.00,,---,0.00,VWS V14.01,2013-01-08 05:29:00,
2013-01-08 00:34:00,33.3,29.6,30.31,SSW,201,2.0,10.0,86,0.00,,---,0.00,VWS V14.01,2013-01-08 05:34:00,
2013-01-08 00:44:00,33.3,29.6,30.31,SSW,206,0.0,10.0,86,0.00,,---,0.00,VWS V14.01,2013-01-08 05:44:00,
2013-01-08 00:49:00,33.2,29.5,30.31,SW,234,2.0,9.0,86,0.00,,---,0.00,VWS V14.01,2013-01-08 05:49:00,
2013-01-08 00:59:00,33.1,29.4,30.31,SSW,211,7.0,8.0,86,0.00,,---,0.00,VWS V14.01,2013-01-08 05:59:00,
2013-01-08 01:04:00,33.1,29.4,30.31,SSW,203,2.0,7.0,86,0.00,,---,0.00,VWS V14.01,2013-01-08 06:04:00,
2013-01-08 01:09:00,33.0,29.6,30.31,SSW,202,0.0,5.0,87,0.00,,---,0.00,VWS V14.01,2013-01-08 06:09:00,
2013-01-08 01:14:00,33.0,29.6,30.30,South,188,6.0,6.0,87,0.00,,---,0.00,VWS V14.01,2013-01-08 06:14:00,
2013-01-08 01:19:00,32.9,29.5,30.30,South,187,1.0,6.0,87,0.00,,---,0.00,VWS V14.01,2013-01-08 06:19:00,
2013-01-08 01:24:00,33.0,29.6,30.30,South,190,1.0,6.0,87,0.00,,---,0.00,VWS V14.01,2013-01-08 06:24:00,
2013-01-08 01:34:00,33.2,30.0,30.30,SSW,193,3.0,6.0,88,0.00,,---,0.00,VWS V14.01,2013-01-08 06:34:00,
2013-01-08 01:44:00,33.3,30.1,30.30,South,172,4.0,7.0,88,0.00,,---,0.00,VWS V14.01,2013-01-08 06:44:00,
2013-01-08 01:49:00,33.3,30.4,30.30,South,188,4.0,7.0,89,0.00,,---,0.00,VWS V14.01,2013-01-08 06:49:00,
2013-01-08 01:54:00,33.4,30.5,30.30,South,188,3.0,9.0,89,0.00,,---,0.00,VWS V14.01,2013-01-08 06:54:00,
2013-01-08 01:59:00,33.4,30.5,30.30,SSW,210,1.0,7.0,89,0.00,,---,0.00,VWS V14.01,2013-01-08 06:59:00,
2013-01-08 02:04:00,33.4,30.5,30.29,South,185,3.0,7.0,89,0.00,,---,0.00,VWS V14.01,2013-01-08 07:04:00,
2013-01-08 02:14:00,33.5,30.6,30.29,SW,215,3.0,6.0,89,0.00,,---,0.00,VWS V14.01,2013-01-08 07:14:00,
2013-01-08 02:24:00,33.5,30.6,30.29,SW,217,5.0,6.0,89,0.00,,---,0.00,VWS V14.01,2013-01-08 07:24:00,
2013-01-08 02:29:00,33.6,30.7,30.29,SSE,167,5.0,11.0,89,0.00,,---,0.00,VWS V14.01,2013-01-08 07:29:00,
2013-01-08 02:34:00,33.6,30.7,30.29,SSW,208,6.0,11.0,89,0.00,,---,0.00,VWS V14.01,2013-01-08 07:34:00,
2013-01-08 02:39:00,33.5,30.9,30.29,SW,219,3.0,11.0,90,0.00,,---,0.00,VWS V14.01,2013-01-08 07:39:00,
2013-01-08 02:44:00,33.5,30.9,30.29,SSW,204,3.0,10.0,90,0.00,,---,0.00,VWS V14.01,2013-01-08 07:44:00,
2013-01-08 02:49:00,33.4,30.8,30.29,South,188,2.0,5.0,90,0.00,,---,0.00,VWS V14.01,2013-01-08 07:49:00,
2013-01-08 02:54:00,33.3,30.7,30.29,SW,223,1.0,5.0,90,0.00,,---,0.00,VWS V14.01,2013-01-08 07:54:00,
2013-01-08 03:04:00,33.2,30.6,30.29,SW,229,1.0,10.0,90,0.00,,---,0.00,VWS V14.01,2013-01-08 08:04:00,
2013-01-08 03:14:00,33.2,30.6,30.28,SW,214,11.0,12.0,90,0.00,,---,0.00,VWS V14.01,2013-01-08 08:14:00,
2013-01-08 03:19:00,33.2,30.6,30.28,SSE,168,7.0,11.0,90,0.00,,---,0.00,VWS V14.01,2013-01-08 08:19:00,
2013-01-08 03:24:00,33.2,30.3,30.28,SSW,211,2.0,11.0,89,0.00,,---,0.00,VWS V14.01,2013-01-08 08:24:00,
2013-01-08 03:29:00,33.2,30.0,30.28,SSW,207,5.0,9.0,88,0.00,,---,0.00,VWS V14.01,2013-01-08 08:29:00,
2013-01-08 03:34:00,33.4,30.2,30.27,South,186,2.0,11.0,88,0.00,,---,0.00,VWS V14.01,2013-01-08 08:34:00,
2013-01-08 03:39:00,33.5,30.0,30.27,SW,233,3.0,11.0,87,0.00,,---,0.00,VWS V14.01,2013-01-08 08:39:00,
2013-01-08 03:44:00,33.7,30.0,30.27,SSW,213,6.0,11.0,86,0.00,,---,0.00,VWS V14.01,2013-01-08 08:44:00,
2013-01-08 03:49:00,33.8,29.8,30.27,SW,217,6.0,12.0,85,0.00,,---,0.00,VWS V14.01,2013-01-08 08:49:00,
2013-01-08 03:54:00,33.8,29.5,30.27,South,188,2.0,7.0,84,0.00,,---,0.00,VWS V14.01,2013-01-08 08:54:00,
2013-01-08 03:59:00,33.8,29.5,30.26,SSE,161,4.0,10.0,84,0.00,,---,0.00,VWS V14.01,2013-01-08 08:59:00,
2013-01-08 04:04:00,33.8,29.5,30.26,SW,217,1.0,10.0,84,0.00,,---,0.00,VWS V14.01,2013-01-08 09:04:00,
2013-01-08 04:09:00,34.0,29.7,30.26,SW,232,4.0,10.0,84,0.00,,---,0.00,VWS V14.01,2013-01-08 09:09:00,
2013-01-08 04:14:00,34.1,29.5,30.25,SW,215,4.0,11.0,83,0.00,,---,0.00,VWS V14.01,2013-01-08 09:14:00,
2013-01-08 04:19:00,34.2,29.6,30.25,SW,218,3.0,8.0,83,0.00,,---,0.00,VWS V14.01,2013-01-08 09:19:00,
2013-01-08 04:29:00,34.2,29.3,30.25,SW,226,0.0,7.0,82,0.00,,---,0.00,VWS V14.01,2013-01-08 09:29:00,
2013-01-08 04:34:00,34.2,29.6,30.25,SSW,213,1.0,9.0,83,0.00,,---,0.00,VWS V14.01,2013-01-08 09:34:00,
2013-01-08 04:44:00,34.3,29.7,30.25,South,185,6.0,11.0,83,0.00,,---,0.00,VWS V14.01,2013-01-08 09:44:00,
2013-01-08 04:49:00,34.4,29.8,30.25,SW,232,5.0,10.0,83,0.00,,---,0.00,VWS V14.01,2013-01-08 09:49:00,
2013-01-08 04:54:00,34.4,29.8,30.25,SW,229,3.0,10.0,83,0.00,,---,0.00,VWS V14.01,2013-01-08 09:54:00,
2013-01-08 04:59:00,34.7,30.1,30.25,South,190,6.0,9.0,83,0.00,,---,0.00,VWS V14.01,2013-01-08 09:59:00,
2013-01-08 05:09:00,34.9,30.3,30.25,SSW,198,3.0,7.0,83,0.00,,---,0.00,VWS V14.01,2013-01-08 10:09:00,
2013-01-08 05:14:00,34.9,30.0,30.25,SW,221,2.0,7.0,82,0.00,,---,0.00,VWS V14.01,2013-01-08 10:14:00,
2013-01-08 05:19:00,35.0,30.1,30.24,WSW,248,4.0,10.0,82,0.00,,---,0.00,VWS V14.01,2013-01-08 10:19:00,
2013-01-08 05:29:00,35.3,30.1,30.24,South,180,2.0,11.0,81,0.00,,---,0.00,VWS V14.01,2013-01-08 10:29:00,
2013-01-08 05:34:00,35.3,30.1,30.24,SSW,202,3.0,7.0,81,0.00,,---,0.00,VWS V14.01,2013-01-08 10:34:00,
2013-01-08 05:44:00,35.5,30.3,30.24,SW,217,4.0,6.0,81,0.00,,---,0.00,VWS V14.01,2013-01-08 10:44:00,
2013-01-08 05:49:00,35.5,30.3,30.24,SSW,210,2.0,5.0,81,0.00,,---,0.00,VWS V14.01,2013-01-08 10:49:00,
2013-01-08 05:54:00,35.5,30.3,30.24,SW,218,2.0,7.0,81,0.00,,---,0.00,VWS V14.01,2013-01-08 10:54:00,
2013-01-08 06:04:00,35.5,30.0,30.24,WSW,242,3.0,6.0,80,0.00,,---,0.00,VWS V14.01,2013-01-08 11:04:00,
2013-01-08 06:14:00,35.8,30.2,30.24,SW,223,2.0,10.0,80,0.00,,---,0.00,VWS V14.01,2013-01-08 11:14:00,
2013-01-08 06:24:00,36.2,30.0,30.25,SW,230,9.0,13.0,78,0.00,,---,0.00,VWS V14.01,2013-01-08 11:24:00,
2013-01-08 06:29:00,36.4,30.2,30.24,WSW,246,5.0,15.0,78,0.00,,---,0.00,VWS V14.01,2013-01-08 11:29:00,
2013-01-08 06:39:00,36.4,29.9,30.25,WNW,282,2.0,11.0,77,0.00,,---,0.00,VWS V14.01,2013-01-08 11:39:00,
2013-01-08 06:49:00,36.1,29.6,30.25,SW,236,11.0,14.0,77,0.00,,---,0.00,VWS V14.01,2013-01-08 11:49:00,
2013-01-08 06:54:00,36.0,29.8,30.24,SSW,211,6.0,17.0,78,0.00,,---,0.00,VWS V14.01,2013-01-08 11:54:00,
2013-01-08 06:59:00,36.0,29.8,30.25,SSW,213,0.0,13.0,78,0.00,,---,0.00,VWS V14.01,2013-01-08 11:59:00,
2013-01-08 07:04:00,35.9,29.7,30.25,SW,236,5.0,8.0,78,0.00,,---,0.00,VWS V14.01,2013-01-08 12:04:00,
2013-01-08 07:09:00,35.9,29.7,30.25,WSW,238,2.0,16.0,78,0.00,,---,0.00,VWS V14.01,2013-01-08 12:09:00,
2013-01-08 07:14:00,35.9,29.7,30.25,SW,221,8.0,10.0,78,0.00,,---,0.00,VWS V14.01,2013-01-08 12:14:00,
2013-01-08 07:19:00,35.9,29.7,30.25,SSW,213,10.0,12.0,78,0.00,,---,0.00,VWS V14.01,2013-01-08 12:19:00,
2013-01-08 07:24:00,35.9,29.7,30.25,WSW,238,4.0,12.0,78,0.00,,---,0.00,VWS V14.01,2013-01-08 12:24:00,
2013-01-08 07:29:00,35.9,29.7,30.25,West,268,0.0,13.0,78,0.00,,---,0.00,VWS V14.01,2013-01-08 12:29:00,
2013-01-08 07:34:00,36.0,29.8,30.25,SSW,206,5.0,16.0,78,0.00,,---,0.00,VWS V14.01,2013-01-08 12:34:00,
2013-01-08 07:44:00,36.3,29.8,30.26,WSW,254,3.0,13.0,77,0.00,,---,0.00,VWS V14.01,2013-01-08 12:44:00,
2013-01-08 07:49:00,36.4,29.9,30.26,WSW,237,6.0,16.0,77,0.00,,---,0.00,VWS V14.01,2013-01-08 12:49:00,
2013-01-08 07:54:00,36.5,30.0,30.26,WSW,254,4.0,11.0,77,0.00,,---,0.00,VWS V14.01,2013-01-08 12:54:00,
2013-01-08 07:59:00,36.5,30.0,30.27,West,271,7.0,12.0,77,0.00,,---,0.00,VWS V14.01,2013-01-08 12:59:00,
2013-01-08 08:09:00,36.6,29.8,30.26,WSW,240,3.0,14.0,76,0.00,,---,0.00,VWS V14.01,2013-01-08 13:09:00,
2013-01-08 08:14:00,36.7,29.9,30.26,WSW,246,12.0,12.0,76,0.00,,---,0.00,VWS V14.01,2013-01-08 13:14:00,
2013-01-08 08:19:00,36.9,30.0,30.27,West,262,9.0,16.0,76,0.00,,---,0.00,VWS V14.01,2013-01-08 13:19:00,
2013-01-08 08:29:00,37.2,30.0,30.27,WSW,248,3.0,13.0,75,0.00,,---,0.00,VWS V14.01,2013-01-08 13:29:00,
2013-01-08 08:34:00,37.4,30.2,30.27,SW,222,10.0,17.0,75,0.00,,---,0.00,VWS V14.01,2013-01-08 13:34:00,
2013-01-08 08:39:00,37.6,30.1,30.27,SW,235,11.0,19.0,74,0.00,,---,0.00,VWS V14.01,2013-01-08 13:39:00,
2013-01-08 08:44:00,37.7,30.2,30.27,SW,221,11.0,15.0,74,0.00,,---,0.00,VWS V14.01,2013-01-08 13:44:00,
2013-01-08 08:49:00,38.0,30.1,30.27,WSW,238,4.0,18.0,73,0.00,,---,0.00,VWS V14.01,2013-01-08 13:49:00,
2013-01-08 08:54:00,38.4,30.5,30.27,West,259,9.0,17.0,73,0.00,,---,0.00,VWS V14.01,2013-01-08 13:54:00,
2013-01-08 08:59:00,38.6,30.4,30.27,West,279,6.0,18.0,72,0.00,,---,0.00,VWS V14.01,2013-01-08 13:59:00,
2013-01-08 09:04:00,38.9,30.7,30.27,West,267,6.0,13.0,72,0.00,,---,0.00,VWS V14.01,2013-01-08 14:04:00,
2013-01-08 09:09:00,39.2,30.6,30.27,WSW,252,8.0,20.0,71,0.00,,---,0.00,VWS V14.01,2013-01-08 14:09:00,
2013-01-08 09:14:00,39.4,30.8,30.27,West,260,10.0,19.0,71,0.00,,---,0.00,VWS V14.01,2013-01-08 14:14:00,
2013-01-08 09:19:00,39.5,30.5,30.27,WSW,244,5.0,21.0,70,0.00,,---,0.00,VWS V14.01,2013-01-08 14:19:00,
2013-01-08 09:24:00,39.7,30.7,30.27,SW,230,5.0,22.0,70,0.00,,---,0.00,VWS V14.01,2013-01-08 14:24:00,
2013-01-08 09:29:00,39.9,30.6,30.27,SW,220,12.0,15.0,69,0.00,,---,0.00,VWS V14.01,2013-01-08 14:29:00,
2013-01-08 09:34:00,40.0,30.7,30.27,SW,234,7.0,18.0,69,0.00,,---,0.00,VWS V14.01,2013-01-08 14:34:00,
2013-01-08 09:39:00,40.2,30.9,30.27,West,263,3.0,15.0,69,0.00,,---,0.00,VWS V14.01,2013-01-08 14:39:00,
2013-01-08 09:44:00,40.5,30.8,30.27,SW,230,4.0,18.0,68,0.00,,---,0.00,VWS V14.01,2013-01-08 14:44:00,
2013-01-08 09:49:00,40.7,31.0,30.27,WSW,245,12.0,16.0,68,0.00,,---,0.00,VWS V14.01,2013-01-08 14:49:00,
2013-01-08 09:54:00,40.7,31.0,30.27,WSW,250,14.0,22.0,68,0.00,,---,0.00,VWS V14.01,2013-01-08 14:54:00,
2013-01-08 09:59:00,40.9,31.2,30.27,WSW,250,7.0,19.0,68,0.00,,---,0.00,VWS V14.01,2013-01-08 14:59:00,
2013-01-08 10:09:00,41.1,31.0,30.26,West,278,11.0,17.0,67,0.00,,---,0.00,VWS V14.01,2013-01-08 15:09:00,
2013-01-08 10:14:00,41.2,31.1,30.27,WSW,252,14.0,24.0,67,0.00,,---,0.00,VWS V14.01,2013-01-08 15:14:00,
2013-01-08 10:19:00,41.1,30.6,30.26,WSW,241,18.0,23.0,66,0.00,,---,0.00,VWS V14.01,2013-01-08 15:19:00,
2013-01-08 10:24:00,41.2,30.7,30.26,West,263,4.0,20.0,66,0.00,,---,0.00,VWS V14.01,2013-01-08 15:24:00,
2013-01-08 10:29:00,41.4,30.9,30.26,WSW,244,5.0,17.0,66,0.00,,---,0.00,VWS V14.01,2013-01-08 15:29:00,
2013-01-08 10:39:00,41.5,31.0,30.25,SW,229,17.0,22.0,66,0.00,,---,0.00,VWS V14.01,2013-01-08 15:39:00,
2013-01-08 10:44:00,41.6,30.7,30.25,West,281,6.0,20.0,65,0.00,,---,0.00,VWS V14.01,2013-01-08 15:44:00,
2013-01-08 10:54:00,41.9,31.0,30.25,WSW,238,12.0,18.0,65,0.00,,---,0.00,VWS V14.01,2013-01-08 15:54:00,
2013-01-08 10:59:00,42.1,31.2,30.25,WSW,252,6.0,15.0,65,0.00,,---,0.00,VWS V14.01,2013-01-08 15:59:00,
2013-01-08 11:09:00,42.4,31.1,30.24,SW,235,3.0,19.0,64,0.00,,---,0.00,VWS V14.01,2013-01-08 16:09:00,
2013-01-08 11:14:00,42.8,31.5,30.23,WSW,246,10.0,22.0,64,0.00,,---,0.00,VWS V14.01,2013-01-08 16:14:00,
2013-01-08 11:19:00,43.0,31.3,30.23,SSW,213,6.0,16.0,63,0.00,,---,0.00,VWS V14.01,2013-01-08 16:19:00,
2013-01-08 11:24:00,43.3,31.6,30.23,West,268,4.0,16.0,63,0.00,,---,0.00,VWS V14.01,2013-01-08 16:24:00,
2013-01-08 11:29:00,43.7,31.5,30.23,SW,230,11.0,18.0,62,0.00,,---,0.00,VWS V14.01,2013-01-08 16:29:00,
2013-01-08 11:34:00,43.9,31.3,30.22,West,261,6.0,19.0,61,0.00,,---,0.00,VWS V14.01,2013-01-08 16:34:00,
2013-01-08 11:44:00,44.0,31.0,30.22,WSW,253,13.0,16.0,60,0.00,,---,0.00,VWS V14.01,2013-01-08 16:44:00,
2013-01-08 11:49:00,44.2,31.6,30.22,WSW,257,11.0,17.0,61,0.00,,---,0.00,VWS V14.01,2013-01-08 16:49:00,
2013-01-08 11:54:00,44.6,31.6,30.21,SW,230,2.0,17.0,60,0.00,,---,0.00,VWS V14.01,2013-01-08 16:54:00,
2013-01-08 11:59:00,44.8,31.4,30.21,West,273,15.0,19.0,59,0.00,,---,0.00,VWS V14.01,2013-01-08 16:59:00,
2013-01-08 12:04:00,45.0,31.5,30.21,SW,227,7.0,22.0,59,0.00,,---,0.00,VWS V14.01,2013-01-08 17:04:00,
2013-01-08 12:14:00,45.4,31.9,30.20,SSW,209,12.0,17.0,59,0.00,,---,0.00,VWS V14.01,2013-01-08 17:14:00,
2013-01-08 12:24:00,45.7,31.8,30.20,SW,224,3.0,18.0,58,0.00,,---,0.00,VWS V14.01,2013-01-08 17:24:00,
2013-01-08 12:29:00,45.8,31.9,30.20,WSW,238,4.0,17.0,58,0.00,,---,0.00,VWS V14.01,2013-01-08 17:29:00,
2013-01-08 12:34:00,45.8,31.9,30.20,West,261,3.0,18.0,58,0.00,,---,0.00,VWS V14.01,2013-01-08 17:34:00,
2013-01-08 12:39:00,45.9,32.0,30.20,WSW,239,17.0,17.0,58,0.00,,---,0.00,VWS V14.01,2013-01-08 17:39:00,
2013-01-08 12:44:00,46.0,32.1,30.20,WSW,237,5.0,17.0,58,0.00,,---,0.00,VWS V14.01,2013-01-08 17:44:00,
2013-01-08 12:54:00,46.6,32.2,30.20,WSW,237,6.0,15.0,57,0.00,,---,0.00,VWS V14.01,2013-01-08 17:54:00,
2013-01-08 12:59:00,46.8,32.4,30.20,WSW,240,10.0,16.0,57,0.00,,---,0.00,VWS V14.01,2013-01-08 17:59:00,
2013-01-08 13:09:00,47.0,32.1,30.20,WSW,238,4.0,15.0,56,0.00,,---,0.00,VWS V14.01,2013-01-08 18:09:00,
2013-01-08 13:19:00,47.0,32.1,30.19,WSW,237,7.0,16.0,56,0.00,,---,0.00,VWS V14.01,2013-01-08 18:19:00,
2013-01-08 13:29:00,47.4,32.1,30.19,SW,217,9.0,14.0,55,0.00,,---,0.00,VWS V14.01,2013-01-08 18:29:00,
2013-01-08 13:34:00,47.4,32.1,30.19,WSW,257,5.0,13.0,55,0.00,,---,0.00,VWS V14.01,2013-01-08 18:34:00,
2013-01-08 13:44:00,47.6,32.2,30.19,WSW,257,10.0,11.0,55,0.00,,---,0.00,VWS V14.01,2013-01-08 18:44:00,
2013-01-08 13:54:00,47.7,31.9,30.19,SW,231,4.0,15.0,54,0.00,,---,0.00,VWS V14.01,2013-01-08 18:54:00,
2013-01-08 14:04:00,47.4,31.6,30.20,WNW,284,5.0,14.0,54,0.00,,---,0.00,VWS V14.01,2013-01-08 19:04:00,
2013-01-08 14:14:00,47.4,31.1,30.20,WSW,242,6.0,13.0,53,0.00,,---,0.00,VWS V14.01,2013-01-08 19:14:00,
2013-01-08 14:19:00,47.5,31.2,30.20,SW,234,10.0,17.0,53,0.00,,---,0.00,VWS V14.01,2013-01-08 19:19:00,
2013-01-08 14:24:00,47.5,31.2,30.21,WSW,244,7.0,13.0,53,0.00,,---,0.00,VWS V14.01,2013-01-08 19:24:00,
2013-01-08 14:34:00,47.6,31.3,30.21,WSW,237,5.0,15.0,53,0.00,,---,0.00,VWS V14.01,2013-01-08 19:34:00,
2013-01-08 14:44:00,47.6,31.3,30.21,West,261,3.0,13.0,53,0.00,,---,0.00,VWS V14.01,2013-01-08 19:44:00,
2013-01-08 14:49:00,47.7,31.4,30.21,West,267,13.0,19.0,53,0.00,,---,0.00,VWS V14.01,2013-01-08 19:49:00,
2013-01-08 14:54:00,47.7,31.4,30.22,SW,234,7.0,15.0,53,0.00,,---,0.00,VWS V14.01,2013-01-08 19:54:00,
2013-01-08 14:59:00,47.7,31.4,30.21,West,261,2.0,12.0,53,0.00,,---,0.00,VWS V14.01,2013-01-08 19:59:00,
2013-01-08 15:04:00,47.8,31.5,30.21,WSW,257,7.0,12.0,53,0.00,,---,0.00,VWS V14.01,2013-01-08 20:04:00,
2013-01-08 15:14:00,47.7,31.4,30.22,WSW,250,11.0,14.0,53,0.00,,---,0.00,VWS V14.01,2013-01-08 20:14:00,
2013-01-08 15:19:00,47.7,31.9,30.21,SW,227,10.0,12.0,54,0.00,,---,0.00,VWS V14.01,2013-01-08 20:19:00,
2013-01-08 15:24:00,47.4,31.6,30.21,WSW,237,6.0,14.0,54,0.00,,---,0.00,VWS V14.01,2013-01-08 20:24:00,
2013-01-08 15:29:00,47.2,31.9,30.21,WSW,246,1.0,10.0,55,0.00,,---,0.00,VWS V14.01,2013-01-08 20:29:00,
2013-01-08 15:39:00,46.8,32.0,30.21,West,263,12.0,12.0,56,0.00,,---,0.00,VWS V14.01,2013-01-08 20:39:00,
2013-01-08 15:44:00,46.8,32.0,30.21,West,261,5.0,15.0,56,0.00,,---,0.00,VWS V14.01,2013-01-08 20:44:00,
2013-01-08 15:54:00,46.7,32.3,30.22,WSW,242,4.0,12.0,57,0.00,,---,0.00,VWS V14.01,2013-01-08 20:54:00,
2013-01-08 15:59:00,46.6,32.2,30.22,WSW,257,4.0,7.0,57,0.00,,---,0.00,VWS V14.01,2013-01-08 20:59:00,
2013-01-08 16:09:00,46.2,32.2,30.22,WSW,242,4.0,5.0,58,0.00,,---,0.00,VWS V14.01,2013-01-08 21:09:00,
2013-01-08 16:19:00,45.7,31.8,30.22,WSW,241,3.0,7.0,58,0.00,,---,0.00,VWS V14.01,2013-01-08 21:19:00,
2013-01-08 16:24:00,45.5,32.0,30.23,WSW,241,3.0,6.0,59,0.00,,---,0.00,VWS V14.01,2013-01-08 21:24:00,
2013-01-08 16:29:00,45.3,31.8,30.23,WSW,241,5.0,6.0,59,0.00,,---,0.00,VWS V14.01,2013-01-08 21:29:00,
2013-01-08 16:39:00,45.0,31.5,30.23,West,259,0.0,5.0,59,0.00,,---,0.00,VWS V14.01,2013-01-08 21:39:00,
2013-01-08 16:44:00,44.8,31.4,30.23,West,259,1.0,4.0,59,0.00,,---,0.00,VWS V14.01,2013-01-08 21:44:00,
2013-01-08 16:49:00,44.6,31.6,30.23,West,259,5.0,5.0,60,0.00,,---,0.00,VWS V14.01,2013-01-08 21:49:00,
2013-01-08 16:54:00,44.5,31.5,30.23,West,259,3.0,5.0,60,0.00,,---,0.00,VWS V14.01,2013-01-08 21:54:00,
2013-01-08 16:59:00,44.3,31.7,30.23,West,259,3.0,5.0,61,0.00,,---,0.00,VWS V14.01,2013-01-08 21:59:00,
2013-01-08 17:04:00,44.2,31.6,30.23,WSW,257,2.0,5.0,61,0.00,,---,0.00,VWS V14.01,2013-01-08 22:04:00,
2013-01-08 17:09:00,44.0,31.4,30.23,WSW,257,3.0,5.0,61,0.00,,---,0.00,VWS V14.01,2013-01-08 22:09:00,
2013-01-08 17:19:00,43.6,31.5,30.23,WSW,254,3.0,5.0,62,0.00,,---,0.00,VWS V14.01,2013-01-08 22:19:00,
2013-01-08 17:24:00,43.4,31.7,30.23,WSW,254,3.0,5.0,63,0.00,,---,0.00,VWS V14.01,2013-01-08 22:24:00,
2013-01-08 17:34:00,43.2,31.5,30.24,WSW,253,2.0,2.0,63,0.00,,---,0.00,VWS V14.01,2013-01-08 22:34:00,
2013-01-08 17:39:00,43.1,31.4,30.24,WSW,253,3.0,4.0,63,0.00,,---,0.00,VWS V14.01,2013-01-08 22:39:00,
2013-01-08 17:44:00,43.0,31.3,30.24,WSW,253,1.0,3.0,63,0.00,,---,0.00,VWS V14.01,2013-01-08 22:44:00,
2013-01-08 17:54:00,43.0,31.3,30.25,WSW,253,2.0,4.0,63,0.00,,---,0.00,VWS V14.01,2013-01-08 22:54:00,
2013-01-08 17:59:00,42.9,31.2,30.25,WSW,253,1.0,4.0,63,0.00,,---,0.00,VWS V14.01,2013-01-08 22:59:00,
2013-01-08 18:09:00,42.6,30.9,30.25,WSW,253,0.0,3.0,63,0.00,,---,0.00,VWS V14.01,2013-01-08 23:09:00,
2013-01-08 18:14:00,42.5,31.2,30.25,WSW,253,2.0,3.0,64,0.00,,---,0.00,VWS V14.01,2013-01-08 23:14:00,
2013-01-08 18:19:00,42.4,31.1,30.26,WSW,253,1.0,3.0,64,0.00,,---,0.00,VWS V14.01,2013-01-08 23:19:00,
2013-01-08 18:29:00,42.2,30.9,30.26,WSW,253,0.0,3.0,64,0.00,,---,0.00,VWS V14.01,2013-01-08 23:29:00,
2013-01-08 18:34:00,42.2,30.9,30.26,WSW,253,0.0,2.0,64,0.00,,---,0.00,VWS V14.01,2013-01-08 23:34:00,
2013-01-08 18:39:00,42.2,30.9,30.26,WSW,253,1.0,5.0,64,0.00,,---,0.00,VWS V14.01,2013-01-08 23:39:00,
2013-01-08 18:49:00,42.2,30.9,30.26,WSW,253,1.0,4.0,64,0.00,,---,0.00,VWS V14.01,2013-01-08 23:49:00,
2013-01-08 18:54:00,42.2,31.3,30.27,WSW,253,2.0,4.0,65,0.00,,---,0.00,VWS V14.01,2013-01-08 23:54:00,
2013-01-08 18:59:00,42.2,31.3,30.27,WSW,253,1.0,4.0,65,0.00,,---,0.00,VWS V14.01,2013-01-08 23:59:00,
2013-01-08 19:04:00,41.9,31.0,30.27,WSW,253,3.0,4.0,65,0.00,,---,0.00,VWS V14.01,2013-01-09 00:04:00,
2013-01-08 19:09:00,41.9,31.4,30.27,WSW,253,2.0,5.0,66,0.00,,---,0.00,VWS V14.01,2013-01-09 00:09:00,
2013-01-08 19:14:00,41.8,31.3,30.27,WSW,253,0.0,5.0,66,0.00,,---,0.00,VWS V14.01,2013-01-09 00:14:00,
2013-01-08 19:19:00,41.7,31.2,30.28,WSW,253,1.0,4.0,66,0.00,,---,0.00,VWS V14.01,2013-01-09 00:19:00,
2013-01-08 19:24:00,41.6,31.1,30.28,WSW,253,2.0,5.0,66,0.00,,---,0.00,VWS V14.01,2013-01-09 00:24:00,
2013-01-08 19:29:00,41.5,31.0,30.27,WSW,253,2.0,5.0,66,0.00,,---,0.00,VWS V14.01,2013-01-09 00:29:00,
2013-01-08 19:39:00,41.2,31.1,30.28,WSW,253,0.0,3.0,67,0.00,,---,0.00,VWS V14.01,2013-01-09 00:39:00,
2013-01-08 19:44:00,41.1,31.0,30.28,WSW,253,2.0,3.0,67,0.00,,---,0.00,VWS V14.01,2013-01-09 00:44:00,
2013-01-08 19:54:00,40.9,31.2,30.28,WSW,253,2.0,4.0,68,0.00,,---,0.00,VWS V14.01,2013-01-09 00:54:00,
2013-01-08 19:59:00,40.9,31.2,30.28,WSW,253,0.0,4.0,68,0.00,,---,0.00,VWS V14.01,2013-01-09 00:59:00,
2013-01-08 20:04:00,40.8,31.1,30.28,WSW,253,2.0,4.0,68,0.00,,---,0.00,VWS V14.01,2013-01-09 01:04:00,
2013-01-08 20:09:00,40.8,31.1,30.28,WSW,253,2.0,4.0,68,0.00,,---,0.00,VWS V14.01,2013-01-09 01:09:00,
2013-01-08 20:14:00,40.7,31.0,30.28,WSW,253,3.0,5.0,68,0.00,,---,0.00,VWS V14.01,2013-01-09 01:14:00,
2013-01-08 20:24:00,40.5,31.1,30.28,WSW,253,3.0,4.0,69,0.00,,---,0.00,VWS V14.01,2013-01-09 01:24:00,
2013-01-08 20:34:00,40.2,30.9,30.28,WSW,253,1.0,4.0,69,0.00,,---,0.00,VWS V14.01,2013-01-09 01:34:00,
2013-01-08 20:39:00,40.2,31.2,30.29,WSW,253,2.0,4.0,70,0.00,,---,0.00,VWS V14.01,2013-01-09 01:39:00,
2013-01-08 20:44:00,40.2,31.2,30.28,WSW,253,0.0,3.0,70,0.00,,---,0.00,VWS V14.01,2013-01-09 01:44:00,
2013-01-08 20:49:00,40.1,31.1,30.29,WSW,253,0.0,4.0,70,0.00,,---,0.00,VWS V14.01,2013-01-09 01:49:00,
2013-01-08 20:54:00,40.0,31.0,30.28,WSW,253,0.0,3.0,70,0.00,,---,0.00,VWS V14.01,2013-01-09 01:54:00,
2013-01-08 20:59:00,39.9,30.9,30.28,WSW,253,1.0,4.0,70,0.00,,---,0.00,VWS V14.01,2013-01-09 01:59:00,
2013-01-08 21:09:00,39.8,31.2,30.28,WSW,253,3.0,4.0,71,0.00,,---,0.00,VWS V14.01,2013-01-09 02:09:00,
2013-01-08 21:14:00,39.7,31.1,30.28,WSW,253,0.0,3.0,71,0.00,,---,0.00,VWS V14.01,2013-01-09 02:14:00,
2013-01-08 21:19:00,39.6,31.0,30.28,WSW,253,5.0,6.0,71,0.00,,---,0.00,VWS V14.01,2013-01-09 02:19:00,
2013-01-08 21:29:00,39.5,30.9,30.28,WSW,253,1.0,3.0,71,0.00,,---,0.00,VWS V14.01,2013-01-09 02:29:00,
2013-01-08 21:34:00,39.4,30.8,30.28,WSW,253,3.0,5.0,71,0.00,,---,0.00,VWS V14.01,2013-01-09 02:34:00,
2013-01-08 21:39:00,39.3,31.0,30.28,WSW,253,2.0,4.0,72,0.00,,---,0.00,VWS V14.01,2013-01-09 02:39:00,
2013-01-08 21:44:00,39.2,31.0,30.28,WSW,253,0.0,5.0,72,0.00,,---,0.00,VWS V14.01,2013-01-09 02:44:00,
2013-01-08 21:54:00,38.9,30.7,30.29,WSW,253,2.0,5.0,72,0.00,,---,0.00,VWS V14.01,2013-01-09 02:54:00,
2013-01-08 21:59:00,38.8,30.9,30.28,NW,318,2.0,6.0,73,0.00,,---,0.00,VWS V14.01,2013-01-09 02:59:00,
2013-01-08 22:09:00,38.6,30.7,30.29,NW,306,5.0,5.0,73,0.00,,---,0.00,VWS V14.01,2013-01-09 03:09:00,
2013-01-08 22:14:00,38.6,30.7,30.29,WNW,303,2.0,6.0,73,0.00,,---,0.00,VWS V14.01,2013-01-09 03:14:00,
2013-01-08 22:19:00,38.5,30.6,30.29,WNW,290,2.0,6.0,73,0.00,,---,0.00,VWS V14.01,2013-01-09 03:19:00,
2013-01-08 22:29:00,38.5,30.6,30.29,West,263,2.0,10.0,73,0.00,,---,0.00,VWS V14.01,2013-01-09 03:29:00,
2013-01-08 22:34:00,38.4,30.5,30.29,West,263,1.0,4.0,73,0.00,,---,0.00,VWS V14.01,2013-01-09 03:34:00,
2013-01-08 22:39:00,38.3,30.4,30.29,West,263,2.0,6.0,73,0.00,,---,0.00,VWS V14.01,2013-01-09 03:39:00,
2013-01-08 22:49:00,38.3,30.4,30.29,West,263,3.0,5.0,73,0.00,,---,0.00,VWS V14.01,2013-01-09 03:49:00,
2013-01-08 22:54:00,38.2,30.3,30.29,West,263,3.0,4.0,73,0.00,,---,0.00,VWS V14.01,2013-01-09 03:54:00,
2013-01-08 22:59:00,38.0,30.1,30.28,West,263,2.0,5.0,73,0.00,,---,0.00,VWS V14.01,2013-01-09 03:59:00,
2013-01-08 23:04:00,37.9,30.4,30.28,West,263,3.0,6.0,74,0.00,,---,0.00,VWS V14.01,2013-01-09 04:04:00,
2013-01-08 23:14:00,37.7,30.2,30.29,West,278,4.0,7.0,74,0.00,,---,0.00,VWS V14.01,2013-01-09 04:14:00,
2013-01-08 23:19:00,37.6,30.1,30.29,West,278,0.0,6.0,74,0.00,,---,0.00,VWS V14.01,2013-01-09 04:19:00,
2013-01-08 23:24:00,37.5,30.0,30.29,West,277,1.0,3.0,74,0.00,,---,0.00,VWS V14.01,2013-01-09 04:24:00,
2013-01-08 23:29:00,37.4,29.9,30.30,West,278,0.0,2.0,74,0.00,,---,0.00,VWS V14.01,2013-01-09 04:29:00,
2013-01-08 23:39:00,37.1,29.9,30.30,West,277,0.0,2.0,75,0.00,,---,0.00,VWS V14.01,2013-01-09 04:39:00,
2013-01-08 23:49:00,36.9,29.7,30.30,West,278,2.0,4.0,75,0.00,,---,0.00,VWS V14.01,2013-01-09 04:49:00,
2013-01-08 23:54:00,36.9,29.7,30.30,West,277,1.0,3.0,75,0.00,,---,0.00,VWS V14.01,2013-01-09 04:54:00,
2013-01-08 23:59:00,36.8,29.6,30.31,West,277,2.0,3.0,75,0.00,,---,0.00,VWS V14.01,2013-01-09 04:59:00,